Location: Vienna
(48.2082°N, 16.3738°E)
Time: 00:48:27
(UTC+02:00)

ISS - Pass Details

Date: 21 July 2018
Orbit: 402 x 408 km, 51.6° (Epoch: 16 July)

Event Time Altitude Azimuth Distance (km) Brightness Sun altitude
Rises 01:22:29 0° 284° (WNW) 2,327 0.1 -21.1°
Reaches altitude 10° 01:24:38 10° 291° (WNW) 1,467 -0.8 -21.1°
Maximum altitude 01:27:48 45° 5° (N) 566 -2.7 -21.0°
Drops below altitude 10° 01:30:59 10° 80° (E) 1,468 -0.8 -20.9°
Sets 01:33:08 0° 87° (E) 2,329 0.2 -20.9°
